Find Starlink 37029

NORAD ID: 68271 Int'l Des: 2026-055 Owner: SPXS Country: US Constellation: starlink operational
LEOCIRCULAR

リアルタイム位置

3D地球を読み込み中...

Starlink 37029について

説明を読み込み中...

次回通過

Passes for default location (London). Set your location on the main map for personalized predictions.

高度履歴

Loading altitude history...

軌道要素

1 68271U 26055K 26124.25579230 .00029108 00000-0 52935-3 0 9997
2 68271 53.1598 61.5107 0001070 73.5415 286.5712 15.49314854 8430
Epoch: May 4, 2026 • Age: 15 hours

現在のステータス

高度 434.8 km
速度 7.65 km/s
衛星直下点 -46.07°S, 175.14°W
打ち上げ日 Mar 19, 2026
運用期間 0.1 years
タイプ internet

技術仕様

分類 Payload
質量 575.00 kg
乾燥質量 530.00 kg
総質量 575.00 kg
長さ 0.30 m
直径 4.10 m
スパン 29.00 m
形状 Box + pan
製造者 SPXS
バスタイプ Starlink V2MO
フェーズステータス In Orbit
所有者/国 SPXS/US

Most Searched